Lincoln, IL

11:01 AM CDT on October 17, 2019 (GMT -0500)
Lincoln

Weather History for KAAA - August, 2019

Change the Weather History Date:

Saturday, August 24, 2019

  Actual Average (WUND) Record (WUND)
Temperature  
Mean Temperature 65 °F -  
Max Temperature 77 °F - - (-1)
Min Temperature 53 °F - - (-1)
Growing Degree Days 15 (Base 50)    
Moisture  
Dew Point 56 °F    
Average Humidity 76    
Maximum Humidity 99    
Minimum Humidity 47    
Precipitation  
Precipitation 0.00 in - - ()
Sea Level Pressure  
Sea Level Pressure 30.19 in    
Wind  
Wind Speed 4 mph ()    
Max Wind Speed 14 mph    
Max Gust Speed 18 mph    
Visibility 10.0 miles    
Events      
Averages and records for this station are not official NWS values.
T = Trace of Precipitation, MM = Missing Value Source: Averaged Metar Reports

Daily Weather History Graph

Daily Weather History Graph

Search for Another Location

Airport or City:

Astronomy

Aug. 24, 2019 Rise Set
Actual Time 6:17 AM CDT 7:41 PM CDT
Civil Twilight 5:48 AM CDT 8:09 PM CDT
Nautical Twilight 5:14 AM CDT 8:43 PM CDT
Astronomical Twilight 4:38 AM CDT 9:19 PM CDT
Moon 12:10 AM CDT (8/24) 2:57 PM CDT (8/24)
Length of Visible Light 14h 21m
Length of Day
13h 24m
Last Quarter, 39% of the Moon is Illuminated
Aug 24
Last Quarter
Aug 30
New
Sep 5
First Quarter
Sep 13
Full
Sep 21
Last Quarter

Hourly Weather History & Observations

Time (CDT) Temp. Dew Point Humidity Pressure Visibility Wind Dir Wind Speed Gust Speed Precip Events Conditions
12:15 AM 60.1 °F 54.7 °F 82% 30.20 in 10.0 mi ENE 6.9 mph - N/A   Clear
12:35 AM 58.8 °F 54.7 °F 86% 30.20 in 10.0 mi NE 3.5 mph - N/A   Clear
12:55 AM 57.4 °F 54.5 °F 90% 30.21 in 10.0 mi NE 3.5 mph - N/A   Clear
1:15 AM 57.2 °F 54.5 °F 91% 30.21 in 10.0 mi Calm Calm - N/A   Clear
1:35 AM 56.7 °F 54.5 °F 92% 30.20 in 10.0 mi NE 3.5 mph - N/A   Clear
1:55 AM 56.7 °F 54.3 °F 92% 30.21 in 10.0 mi Calm Calm - N/A   Clear
2:15 AM 57.2 °F 54.5 °F 91% 30.22 in 10.0 mi NNE 3.5 mph - N/A   Clear
2:35 AM 56.5 °F 54.1 °F 92% 30.21 in 10.0 mi NNE 4.6 mph - N/A   Clear
2:55 AM 55.8 °F 54.3 °F 95% 30.22 in 10.0 mi Calm Calm - N/A   Clear
3:15 AM 55.4 °F 54.1 °F 96% 30.22 in 10.0 mi Calm Calm - N/A   Clear
3:35 AM 55.2 °F 54.0 °F 96% 30.21 in 10.0 mi Calm Calm - N/A   Clear
3:55 AM 54.7 °F 53.8 °F 97% 30.22 in 10.0 mi Calm Calm - N/A   Clear
4:15 AM 54.9 °F 53.6 °F 96% 30.22 in 10.0 mi Calm Calm - N/A   Clear
4:35 AM 54.5 °F 53.4 °F 96% 30.21 in 10.0 mi Calm Calm - N/A   Clear
4:55 AM 54.5 °F 53.6 °F 97% 30.21 in 10.0 mi Calm Calm - N/A   Clear
5:15 AM 55.0 °F 53.6 °F 95% 30.21 in 10.0 mi Calm Calm - N/A   Clear
5:35 AM 54.9 °F 53.6 °F 96% 30.22 in 10.0 mi ENE 3.5 mph - N/A   Clear
5:55 AM 53.1 °F 52.7 °F 99% 30.22 in 10.0 mi Calm Calm - N/A   Clear
6:15 AM 53.8 °F 53.1 °F 97% 30.22 in 10.0 mi Calm Calm - N/A   Clear
6:35 AM 53.8 °F 53.1 °F 97% 30.23 in 10.0 mi Calm Calm - N/A   Clear
6:55 AM 54.9 °F 54.0 °F 97% 30.24 in 10.0 mi NE 3.5 mph - N/A   Clear
7:15 AM 56.3 °F 55.0 °F 96% 30.24 in 10.0 mi Calm Calm - N/A   Clear
7:35 AM 57.4 °F 55.6 °F 94% 30.24 in 10.0 mi ENE 4.6 mph - N/A   Clear
7:55 AM 59.2 °F 56.5 °F 91% 30.24 in 10.0 mi East 3.5 mph - N/A   Clear
8:15 AM 61.0 °F 57.6 °F 88% 30.24 in 10.0 mi East 4.6 mph - N/A   Clear
8:35 AM 63.5 °F 59.2 °F 86% 30.23 in 10.0 mi East 4.6 mph - N/A   Clear
8:55 AM 65.7 °F 58.6 °F 78% 30.23 in 10.0 mi East 8.1 mph - N/A   Clear
9:15 AM 67.3 °F 58.1 °F 72% 30.23 in 10.0 mi East 9.2 mph - N/A   Clear
9:35 AM 69.6 °F 57.9 °F 66% 30.24 in 10.0 mi ESE 11.5 mph - N/A   Clear
9:55 AM 69.8 °F 56.8 °F 63% 30.24 in 10.0 mi ESE 6.9 mph - N/A   Clear
10:15 AM 70.2 °F 57.4 °F 64% 30.24 in 10.0 mi ESE 8.1 mph - N/A   Clear
10:35 AM 71.6 °F 56.8 °F 60% 30.24 in 10.0 mi ESE 10.4 mph - N/A   Clear
10:55 AM 72.1 °F 55.8 °F 56% 30.24 in 10.0 mi East 12.7 mph 16.1 mph N/A   Clear
11:15 AM 72.7 °F 55.0 °F 54% 30.24 in 10.0 mi ESE 12.7 mph 17.3 mph N/A   Clear
11:35 AM 73.4 °F 56.7 °F 56% 30.23 in 10.0 mi ESE 10.4 mph 16.1 mph N/A   Clear
11:55 AM 73.6 °F 56.7 °F 55% 30.22 in 10.0 mi ESE 9.2 mph 18.4 mph N/A   Clear
12:15 PM 74.1 °F 57.2 °F 55% 30.21 in 10.0 mi ESE 9.2 mph 16.1 mph N/A   Scattered Clouds
12:35 PM 75.4 °F 56.3 °F 51% 30.21 in 10.0 mi East 11.5 mph 17.3 mph N/A   Scattered Clouds
12:55 PM 76.1 °F 56.1 °F 50% 30.20 in 10.0 mi East 11.5 mph 18.4 mph N/A   Mostly Cloudy
1:15 PM 74.8 °F 55.8 °F 51% 30.19 in 10.0 mi ESE 12.7 mph 18.4 mph N/A   Scattered Clouds
1:35 PM 75.6 °F 55.8 °F 50% 30.19 in 10.0 mi East 11.5 mph 18.4 mph N/A   Mostly Cloudy
1:55 PM 75.2 °F 54.7 °F 49% 30.19 in 10.0 mi East 13.8 mph 18.4 mph N/A   Mostly Cloudy
2:15 PM 75.9 °F 55.2 °F 49% 30.18 in 10.0 mi East 9.2 mph 16.1 mph N/A   Scattered Clouds
2:55 PM 77.2 °F 55.4 °F 47% 30.17 in 10.0 mi East 9.2 mph 16.1 mph N/A   Clear
3:15 PM 77.4 °F 55.9 °F 47% 30.17 in 10.0 mi East 12.7 mph 16.1 mph N/A   Scattered Clouds
3:35 PM 75.7 °F 55.4 °F 49% 30.16 in 10.0 mi ENE 11.5 mph - N/A   Scattered Clouds
3:55 PM 76.5 °F 55.2 °F 48% 30.15 in 10.0 mi East 8.1 mph - N/A   Scattered Clouds
4:15 PM 76.3 °F 55.0 °F 48% 30.15 in 10.0 mi East 11.5 mph - N/A   Clear
4:35 PM 77.7 °F 56.1 °F 47% 30.14 in 10.0 mi East 11.5 mph - N/A   Scattered Clouds
4:55 PM 75.9 °F 56.5 °F 51% 30.14 in 10.0 mi ESE 8.1 mph - N/A   Mostly Cloudy
5:15 PM 75.9 °F 55.6 °F 49% 30.14 in 10.0 mi East 12.7 mph - N/A   Scattered Clouds
5:35 PM 76.3 °F 56.5 °F 50% 30.14 in 10.0 mi ESE 5.8 mph - N/A   Scattered Clouds
5:55 PM 74.5 °F 57.6 °F 55% 30.14 in 10.0 mi East 4.6 mph - N/A   Scattered Clouds
6:15 PM 73.4 °F 58.8 °F 60% 30.14 in 10.0 mi ESE 3.5 mph - N/A   Clear
6:35 PM 72.5 °F 60.1 °F 65% 30.13 in 10.0 mi Calm Calm - N/A   Clear
6:55 PM 70.5 °F 60.4 °F 70% 30.13 in 10.0 mi East 3.5 mph - N/A   Clear
7:15 PM 68.4 °F 61.2 °F 78% 30.13 in 10.0 mi ENE 3.5 mph - N/A   Clear
7:35 PM 68.7 °F 59.2 °F 72% 30.13 in 10.0 mi Calm Calm - N/A   Clear
8:15 PM 66.0 °F 59.9 °F 81% 30.14 in 10.0 mi East 3.5 mph - N/A   Clear
8:35 PM 64.4 °F 59.7 °F 85% 30.14 in 10.0 mi East 3.5 mph - N/A   Clear
8:55 PM 63.9 °F 58.6 °F 83% 30.15 in 10.0 mi Calm Calm - N/A   Clear
9:15 PM 62.2 °F 58.5 °F 87% 30.16 in 10.0 mi Calm Calm - N/A   Clear
9:35 PM 60.4 °F 58.8 °F 94% 30.16 in 10.0 mi Calm Calm - N/A   Clear
9:55 PM 59.7 °F 57.9 °F 94% 30.16 in 10.0 mi NE 4.6 mph - N/A   Clear
10:15 PM 59.0 °F 57.4 °F 94% 30.16 in 10.0 mi ENE 3.5 mph - N/A   Clear
10:35 PM 60.1 °F 57.7 °F 92% 30.16 in 10.0 mi ENE 5.8 mph - N/A   Clear
10:55 PM 60.4 °F 57.2 °F 89% 30.16 in 10.0 mi ENE 3.5 mph - N/A   Clear
11:15 PM 59.0 °F 56.5 °F 91% 30.16 in 10.0 mi Calm Calm - N/A   Scattered Clouds
11:35 PM 58.3 °F 56.7 °F 94% 30.15 in 10.0 mi ENE 5.8 mph - N/A   Scattered Clouds
11:55 PM 59.0 °F 56.3 °F 91% 30.15 in 10.0 mi ENE 3.5 mph - N/A   Clear